Погода в Гильчине

Россия / Амурская область     49°54′18″N   127°51′59″E
темп.,
°C
ветер,
м/с
пор.,
м/с
влажн.,
%
обл.,
%
осадки,
мм/ч
давл.,
гПа
погр.,
м
12 мая, ср
ср1200:00+11юв81567100 0.0 1008465
03:00+10юв91771100 0.0 1006593
06:00+9вюв112077100 0.4 1002702
09:00+10юв111880100 2.4 10001100
12:00+15юв11165998 0.4 9971946
15:00+13ю81362100 1.9 9971665
18:00+12ююв6968100 1.1 996618
21:00+10юв3583100 5.8 996189
13 мая, чт
чт1300:00+9ю498489 0.6 997348
03:00+9юз4888100 1.1 997339
06:00+9зюз5984100 0.2 998570
09:00+10з6982100 0.6 1000683
12:00+10зсз61078100 0.3 10031182
15:00+11зсз71174100 0.4 10051220
18:00+11сз597498 0.0 1007795
21:00+8сз228741 0.0 100825
14 мая, пт
пт1400:00+7з1188100 0.0 100910
03:00+6юв2290100 0.0 100919
06:00+7юв378999 0.0 1008178
09:00+12юв71167100 0.0 1005493
12:00+17ююв61151100 0.0 1003834
15:00+14зюз71382100 3.8 1001630
18:00+10зюз41393100 5.8 1001709
21:00+9ю4790100 12.6 1002273
15 мая, сб
сб1500:00+8ю4109194 0.0 1001308
03:00+6юз35900 0.0 100178
06:00+6юз411830 0.0 1000292
09:00+11з79605 0.0 10001115
12:00+12з71157100 0.2 9991873
15:00+13зсз9115399 0.8 10002112
18:00+11сз811685 0.4 10021271
21:00+8зсз498186 0.5 1004260
16 мая, вс
вс1600:00+8з368595 0.1 1004109
03:00+8з411843 0.1 1004272
06:00+8з310840 0.0 1004334
09:00+14сз57580 0.0 1004968
12:00+18сз37420 0.0 10021772
15:00+21с373072 0.0 10002669
18:00+19в57445 0.0 997297
21:00+15юв2560100 0.0 999112